Total_Precipitation_Accumulation
2.41 2.57 2.57 2.44 2.48 2.61 2.85 3.05 3.05 2.85 2.74 2.66 2.38 2.25 2.21 2.18 2.32 2.19 2.26 2.16 1.73 1.48 1.41 1.43 1.42 1.45 1.52 1.68 1.91 2.17 2.33 2.45 2.60 2.84 3.17 3.51 3.82 4.11
2.72 2.80 2.68 2.45 2.56 2.62 2.76 3.03 3.27 3.30 3.04 2.67 2.45 2.33 2.32 2.06 2.11 1.91 1.94 1.85 1.52 1.37 1.27 1.23 1.20 1.21 1.23 1.29 1.41 1.65 1.84 2.01 2.18 2.30 2.45 2.63 2.87 3.10
2.73 2.64 2.52 2.56 2.72 2.66 2.79 2.94 3.15 3.36 3.12 2.79 2.65 2.59 2.58 2.38 2.21 1.91 1.67 1.54 1.42 1.48 1.33 1.19 1.15 1.16 1.20 1.26 1.33 1.44 1.61 1.80 1.98 2.12 2.27 2.46 2.57 2.67
2.66 2.61 2.49 2.60 2.71 2.68 2.75 2.76 2.82 3.10 3.02 2.82 2.76 2.80 2.68 2.44 2.32 2.12 1.76 1.57 1.57 1.67 1.51 1.34 1.25 1.23 1.21 1.21 1.30 1.39 1.50 1.63 1.79 1.89 1.93 1.98 2.14 2.37
2.60 2.52 2.41 2.48 2.44 2.50 2.54 2.53 2.53 2.63 2.80 2.72 2.63 2.70 2.62 2.41 2.32 2.16 2.03 2.11 1.92 1.76 1.62 1.47 1.36 1.30 1.29 1.23 1.25 1.36 1.46 1.50 1.53 1.67 1.80 1.90 1.94 2.00
2.30 2.22 2.22 2.32 2.39 2.38 2.31 2.31 2.37 2.52 2.61 2.63 2.60 2.68 2.69 2.65 2.50 2.37 2.39 2.34 2.17 1.74 1.62 1.44 1.34 1.24 1.18 1.12 1.14 1.31 1.45 1.51 1.54 1.54 1.61 1.71 1.82 1.90
2.06 1.87 1.90 2.19 2.31 2.29 2.13 2.21 2.29 2.40 2.48 2.59 2.63 2.72 2.78 2.92 2.69 2.43 2.35 2.40 2.27 2.04 1.86 1.62 1.47 1.35 1.31 1.28 1.23 1.25 1.29 1.40 1.51 1.63 1.77 1.87 1.93 1.96
1.81 1.73 1.74 1.83 1.85 1.90 1.91 1.92 1.96 2.04 2.24 2.50 2.61 2.61 2.58 2.68 2.74 2.61 2.50 2.46 2.43 2.33 2.35 2.24 1.90 1.81 1.69 1.55 1.44 1.20 1.08 1.15 1.31 1.44 1.69 1.96 2.19 2.26
1.77 1.82 1.61 1.46 1.57 1.60 1.72 1.71 1.64 1.70 1.82 2.08 2.29 2.31 2.39 2.39 2.61 2.63 2.67 2.74 2.71 2.66 2.65 2.70 2.36 2.05 1.81 1.73 1.63 1.29 1.13 1.08 1.15 1.26 1.38 1.60 1.89 2.20
1.70 1.72 1.66 1.56 1.54 1.64 1.71 1.66 1.52 1.46 1.44 1.42 1.65 1.93 2.13 2.34 2.39 2.46 2.59 2.67 2.69 2.53 2.49 2.59 2.43 2.26 1.94 1.65 1.52 1.33 1.14 1.02 0.99 1.05 1.08 1.15 1.31 1.54
1.67 1.60 1.56 1.52 1.56 1.44 1.42 1.45 1.44 1.41 1.26 1.25 1.33 1.54 1.73 1.78 1.97 2.24 2.46 2.46 2.42 2.21 2.03 2.14 2.21 2.20 2.15 1.89 1.50 1.37 1.16 0.99 0.94 0.96 0.95 0.96 1.02 1.13
1.65 1.61 1.50 1.37 1.35 1.23 1.23 1.38 1.36 1.34 1.35 1.28 1.19 1.22 1.30 1.45 1.52 1.60 1.91 2.12 2.04 2.00 1.75 1.66 1.65 1.74 1.90 1.73 1.45 1.35 1.30 1.16 0.99 0.95 0.94 0.93 0.98 0.93
1.65 1.61 1.55 1.41 1.22 1.16 1.13 1.19 1.25 1.21 1.27 1.31 1.28 1.23 1.31 1.42 1.39 1.37 1.53 1.73 1.80 1.63 1.45 1.51 1.45 1.36 1.36 1.33 1.24 1.11 1.14 1.26 1.21 1.09 1.02 1.01 1.03 1.05
1.83 1.78 1.69 1.46 1.22 1.12 1.05 1.05 1.02 0.95 0.99 1.13 1.16 1.12 1.14 1.26 1.34 1.33 1.38 1.42 1.47 1.39 1.35 1.43 1.50 1.43 1.29 1.15 1.07 0.97 0.94 1.04 1.20 1.40 1.49 1.48 1.35 1.30
1.82 1.85 1.59 1.34 1.17 1.01 0.99 0.98 0.88 0.82 0.93 1.00 0.99 0.97 0.96 1.06 1.27 1.41 1.46 1.47 1.41 1.24 1.11 1.14 1.28 1.43 1.42 1.21 1.01 0.93 0.92 0.98 1.12 1.32 1.47 1.60 1.67 1.68
1.60 1.67 1.52 1.33 1.18 1.05 1.00 0.95 0.89 0.91 1.00 1.01 1.02 1.05 1.06 1.11 1.20 1.28 1.39 1.44 1.42 1.21 1.08 1.08 1.16 1.34 1.39 1.22 1.08 0.99 0.98 1.05 1.11 1.32 1.56 1.67 1.72 1.79
1.59 1.60 1.59 1.45 1.32 1.21 1.17 1.20 1.21 1.16 1.08 1.07 1.10 1.12 1.11 1.10 1.15 1.22 1.29 1.33 1.27 1.10 0.97 1.04 1.15 1.31 1.34 1.30 1.22 1.05 1.01 0.99 1.01 1.18 1.46 1.58 1.64 1.70
1.42 1.41 1.52 1.52 1.45 1.37 1.30 1.30 1.28 1.22 1.15 1.15 1.13 1.11 1.09 1.07 1.09 1.13 1.17 1.18 1.17 1.07 0.96 0.93 1.08 1.28 1.35 1.21 0.99 0.93 0.92 0.89 0.93 1.11 1.25 1.30 1.26 1.28
1.23 1.27 1.36 1.41 1.37 1.35 1.29 1.26 1.20 1.21 1.22 1.16 1.12 1.13 1.11 1.07 1.07 1.11 1.12 1.17 1.17 1.14 1.08 1.08 1.11 1.16 1.20 1.05 0.88 0.75 0.85 0.89 0.96 1.04 1.13 1.11 1.03 1.04
1.08 1.15 1.20 1.25 1.26 1.26 1.26 1.24 1.20 1.21 1.20 1.17 1.14 1.14 1.14 1.10 1.11 1.13 1.09 1.11 1.17 1.20 1.21 1.14 1.10 1.06 1.04 1.05 1.02 0.91 0.79 0.96 1.06 1.03 0.99 1.03 1.00 0.95
1.00 1.03 1.04 1.05 1.11 1.16 1.17 1.20 1.19 1.16 1.15 1.19 1.16 1.14 1.16 1.18 1.18 1.18 1.18 1.20 1.20 1.22 1.20 1.06 1.02 1.15 1.28 1.36 1.24 1.06 1.00 0.97 1.08 1.11 1.10 1.13 1.11 1.07
0.95 0.98 0.93 0.92 0.98 1.06 1.12 1.17 1.16 1.18 1.21 1.20 1.17 1.16 1.15 1.15 1.15 1.16 1.19 1.22 1.24 1.24 1.22 1.24 1.32 1.39 1.42 1.37 1.24 1.21 1.28 1.21 1.16 1.15 1.10 1.11 1.07 0.98
0.91 0.87 0.83 0.84 0.89 0.95 1.00 1.05 1.11 1.19 1.18 1.15 1.18 1.14 1.09 1.09 1.08 1.11 1.11 1.14 1.20 1.30 1.40 1.43 1.40 1.34 1.32 1.34 1.32 1.27 1.24 1.31 1.32 1.27 1.15 1.04 0.95 0.86